Home   Weather   Lugo   Past weeks

Flag for Spain Past Weather in Lugo, Galicia, Spain — Yesterday and Last 2 Weeks

Now
64 °F

Mostly cloudy.


Feels Like: 64 °F
Forecast: 58 / 70 °F
Wind: 6 mph from Northwest

Location: Santiago / Labacolla

Current Time: Jul 23, 2017 at 11:03:28 pm

Latest Report: Jul 23, 2017 at 10:30 pm


Visibility: N/A

Pressure: 30.27 "Hg

Humidity: 94%

Dew Point: 63 °F

Location of LugoLocation

Past Weather in Lugo — Graph

°F

Lugo Temperature Yesterday

Maximum temperature yesterday: 72 °F (at 3:30 pm)
Minimum temperature yesterday: 57 °F (at 11:30 pm)
Average temperature yesterday: 63 °F

High & Low Weather Summary for the Past Weeks

 TemperatureHumidityPressure
High90 °F (Jul 16, 4:30 pm)100% (Jul 9, 3:30 am)30.27 "Hg (Jul 9, 3:30 am)
Low48 °F (Jul 21, 5:30 am)37% (Jul 17, 6:30 pm)29.89 "Hg (Jul 18, 5:00 am)
Average65 °F80%30.09 "Hg
* Reported Jul 8 9:00 pm — Jul 23 9:30 pm, Lugo. Weather by CustomWeather, © 2017

Note: Actual official high and low records may vary slightly from our data, if they occured in-between our weather recording intervals... More about our weather records

Advertising

Lugo Weather History for the Previous 24 Hours

Scroll right to see more
 ConditionsComfort  
Time TempWeatherWind HumidityBarometerVisibility
9:30 pm
Sun, Jul 23
66 °FMostly cloudy.6 mph88%30.24 "HgN/A
9:00 pm66 °FMostly cloudy.5 mph88%30.24 "HgN/A
8:30 pm66 °FMostly cloudy.8 mph88%30.24 "HgN/A
7:30 pm68 °FMostly cloudy.8 mph78%30.24 "HgN/A
7:00 pm68 °FMostly cloudy.7 mph83%30.24 "HgN/A
6:30 pm70 °FPartly sunny.7 mph78%30.24 "HgN/A
5:30 pm72 °FBroken clouds.5 mph73%30.24 "HgN/A
5:00 pm72 °FBroken clouds.6 mph73%30.24 "HgN/A
4:30 pm72 °FBroken clouds.7 mph73%30.24 "HgN/A
4:00 pm72 °FBroken clouds.5 mph69%30.24 "HgN/A
3:30 pm70 °FPartly sunny.7 mph78%30.24 "HgN/A
3:00 pm70 °FPartly sunny.3 mph73%30.24 "HgN/A
2:30 pm70 °FPartly sunny.5 mph73%30.27 "HgN/A
1:30 pm68 °FPartly sunny.3 mph73%30.27 "HgN/A
12:30 pm64 °FPartly sunny.2 mph83%30.27 "HgN/A
12:00 pm64 °FPartly sunny.1 mph83%30.24 "HgN/A
11:30 am64 °FPartly sunny.2 mph83%30.24 "HgN/A
11:00 am61 °FPartly sunny.2 mph88%30.24 "HgN/A
10:30 am61 °FPartly sunny.No wind83%30.24 "HgN/A
10:00 am55 °FPartly sunny.No wind94%30.24 "HgN/A
9:00 am55 °FPartly sunny.5 mph94%30.24 "HgN/A
8:30 am55 °FPartly sunny.5 mph88%30.24 "HgN/A
7:30 am54 °FSunny.3 mph94%30.21 "Hg10 mi
7:00 am52 °FClear.No wind94%30.21 "Hg10 mi
6:30 am52 °FClear.No wind100%30.21 "Hg10 mi
5:30 am54 °FClear.2 mph100%30.21 "Hg10 mi
4:30 am54 °FClear.2 mph94%30.21 "Hg10 mi
3:30 am54 °FClear.No wind94%30.21 "Hg10 mi
3:00 am55 °FClear.1 mph94%30.21 "Hg10 mi
2:30 am54 °FClear.No wind94%30.21 "Hg10 mi
2:00 am55 °FClear.2 mph88%30.21 "Hg10 mi
1:30 am55 °FClear.No wind94%30.21 "Hg10 mi
1:00 am55 °FClear.2 mph94%30.21 "Hg10 mi
12:30 am55 °FPassing clouds.3 mph88%30.21 "HgN/A
12:00 am57 °FPassing clouds.3 mph82%30.21 "HgN/A
11:30 pm
Sat, Jul 22
57 °FClear.2 mph82%30.21 "Hg10 mi
Weather by CustomWeather, © 2017

See weather overviewHow to use our weather pages